Iasi, Romania

2:32 PM EET on December 03, 2016 (GMT +0200)
Iasi

Weather History for LRIA - January, 2013

Change the Weather History Date:

Friday, January 4, 2013

  Actual Average Record
Temperature  
Mean Temperature 32 °F -  
Max Temperature 42 °F - - ()
Min Temperature 21 °F - - ()
Degree Days  
Heating Degree Days 34    
Moisture  
Dew Point 31 °F    
Average Humidity 78    
Maximum Humidity 91    
Minimum Humidity 58    
Precipitation  
Precipitation 0.04 in - - ()
Sea Level Pressure  
Sea Level Pressure 30.00 in    
Wind  
Wind Speed 5 mph ()    
Max Wind Speed 18 mph    
Max Gust Speed 26 mph    
Visibility 5.0 miles    
Events Rain    
T = Trace of Precipitation, MM = Missing Value Source: Averaged Metar Reports

Daily Weather History Graph

Daily Weather History Graph

Search for Another Location

Airport or City:

Trip Planner

Search our weather history database for the weather conditions in past years. The results will help you decide how hot, cold, wet, or windy it might be!

Date:

Astronomy

Jan. 04, 2013 Rise Set
Actual Time 7:55 AM EET 4:33 PM EET
Civil Twilight 7:20 AM EET 5:08 PM EET
Nautical Twilight 6:41 AM EET 5:47 PM EET
Astronomical Twilight 6:04 AM EET 6:24 PM EET
Moon No Moon Rise 10:58 AM EET (1/4)
Length of Visible Light 9h 48m
Length of Day
8h 37m
Waning Gibbous, 58% of the Moon is Illuminated
Jan 4
Waning Gibbous
Jan 5
Last Quarter
Jan 11
New
Jan 19
First Quarter
Jan 27
Full

Hourly Weather History & Observations

Time (EET) Temp. Windchill Dew Point Humidity Pressure Visibility Wind Dir Wind Speed Gust Speed Precip Events Conditions
12:00 AM 25 °F - 22 °F 86% 30.21 in 1 mi Calm Calm - -   Mist
12:00 AM 30.2 °F 25.4 °F 23.0 °F 75% 30.15 in 3.7 mi ESE 4.6 mph - N/A   Unknown
1:00 AM 26 °F - 22 °F 80% 30.18 in 1 mi ENE 2.2 mph - -   Mist
1:00 AM 32.0 °F - 23.0 °F 69% 30.12 in 4.3 mi Variable 2.3 mph - N/A   Unknown
2:00 AM 26 °F - 24 °F 88% 30.15 in 1 mi East 2.2 mph - -   Mist
2:00 AM 30.2 °F 25.4 °F 23.0 °F 75% 30.09 in 3.7 mi ESE 4.6 mph - N/A   Unknown
3:00 AM 27 °F - 25 °F 89% 30.12 in 1 mi NE 2.2 mph - -   Mist
3:00 AM 32.0 °F - 23.0 °F 69% 30.06 in 3.7 mi Variable 2.3 mph - N/A   Scattered Clouds
4:00 AM 29 °F - 26 °F 85% 30.09 in 2 mi ENE 2.2 mph - -   Mist
4:00 AM 32.0 °F - 24.8 °F 75% 30.04 in 5.0 mi Calm Calm - N/A   Mostly Cloudy
5:00 AM 30 °F - 27 °F 85% 30.05 in 2 mi SW 2.2 mph - -   Mist
5:00 AM 37.4 °F 33.8 °F 26.6 °F 65% 30.01 in 6.2 mi South 4.6 mph - N/A   Mostly Cloudy
5:30 AM 37.4 °F 33.8 °F 26.6 °F 65% 30.01 in 6.2 mi SSW 4.6 mph - N/A   Mostly Cloudy
6:00 AM 33 °F - 29 °F 77% 30.03 in 2 mi West 2.2 mph - - Rain Light Rain
6:00 AM 35.6 °F 31.7 °F 30.2 °F 81% 30.01 in 5.0 mi SW 4.6 mph - N/A Rain Light Rain
6:30 AM 37.4 °F 33.8 °F 32.0 °F 81% 30.01 in 6.2 mi SSW 4.6 mph - N/A Rain Light Rain
7:00 AM 36 °F - 32 °F 80% 30.04 in 2 mi SW 4.5 mph - - Rain Light Rain
7:00 AM 37.4 °F 33.8 °F 32.0 °F 81% 30.01 in 6.2 mi SW 4.6 mph - N/A Rain Light Rain
7:30 AM 39.2 °F 33.0 °F 32.0 °F 75% 30.01 in 6.2 mi West 9.2 mph - N/A Rain Light Rain
8:00 AM 37 °F - 34 °F 83% 30.03 in 2 mi West 4.5 mph - - Rain Light Rain
8:00 AM 37.4 °F 32.1 °F 32.0 °F 81% 30.01 in 6.2 mi WSW 6.9 mph - N/A   Scattered Clouds
8:30 AM 37.4 °F 32.1 °F 32.0 °F 81% 29.98 in 6.2 mi SW 6.9 mph - N/A   Scattered Clouds
9:00 AM 38 °F - 33 °F 76% 30.00 in 6 mi WSW 4.5 mph - - Rain Light Rain
9:30 AM 39.2 °F 34.2 °F 30.2 °F 70% 29.98 in 6.2 mi WSW 6.9 mph - N/A   Partly Cloudy
10:00 AM 38 °F - 33 °F 74% 30.00 in 6 mi WSW 4.5 mph - -   Partly Cloudy
10:00 AM 41.0 °F 35.2 °F 30.2 °F 65% 29.98 in 6.2 mi WSW 9.2 mph - N/A   Scattered Clouds
10:30 AM 41.0 °F 35.2 °F 30.2 °F 65% 29.98 in 6.2 mi WSW 9.2 mph - N/A   Scattered Clouds
11:00 AM 40 °F - 31 °F 61% 29.99 in 6 mi West 4.5 mph - -   Partly Cloudy
11:00 AM 41.0 °F 35.2 °F 30.2 °F 65% 29.98 in 6.2 mi West 9.2 mph - N/A   Mostly Cloudy
11:30 AM 41.0 °F 34.3 °F 30.2 °F 65% 29.98 in 6.2 mi West 11.5 mph - N/A Rain Light Rain
12:00 PM 41 °F - 31 °F 58% 29.99 in 6 mi West 4.5 mph - - Rain Light Rain
12:30 PM 41.0 °F 33.5 °F 32.0 °F 70% 29.95 in 6.2 mi West 13.8 mph 26.5 mph N/A Rain Light Rain
1:00 PM 42 °F - 34 °F 63% 29.96 in 6 mi WNW 11.2 mph - - Rain Light Rain
1:00 PM 41.0 °F 33.5 °F 32.0 °F 70% 29.95 in 6.2 mi West 13.8 mph - N/A Rain Light Rain
1:30 PM 41.0 °F 34.3 °F 32.0 °F 70% 29.92 in 6.2 mi WNW 11.5 mph - N/A   Mostly Cloudy
2:00 PM 42 °F - 33 °F 61% 29.95 in 6 mi WNW 8.9 mph - - Rain Light Rain
2:00 PM 41.0 °F 33.5 °F 32.0 °F 70% 29.92 in 6.2 mi WNW 13.8 mph - N/A   Scattered Clouds
3:30 PM 41.0 °F 32.2 °F 33.8 °F 76% 29.95 in 6.2 mi WNW 18.4 mph - N/A Rain Light Rain
4:00 PM 41 °F - 35 °F 71% 29.96 in 6 mi WNW 8.9 mph - - Rain Light Rain
4:00 PM 39.2 °F 29.8 °F 33.8 °F 81% 29.95 in 6.2 mi WNW 18.4 mph - N/A Rain Light Rain
4:30 PM 39.2 °F 30.5 °F 33.8 °F 81% 29.95 in 6.2 mi WNW 16.1 mph - N/A Rain Light Rain
5:00 PM 39 °F - 36 °F 84% 29.97 in 2 mi WNW 8.9 mph - - Rain Light Rain
5:00 PM 37.4 °F 28.2 °F 33.8 °F 87% 29.95 in 6.2 mi WNW 16.1 mph - N/A Rain Light Rain
5:30 PM 37.4 °F 28.9 °F 33.8 °F 87% 29.95 in 6.2 mi WNW 13.8 mph - N/A Rain Light Rain
6:00 PM 39 °F - 36 °F 84% 29.97 in 2 mi WNW 8.9 mph - - Rain Light Rain
6:00 PM 37.4 °F 29.8 °F 33.8 °F 87% 29.95 in 6.2 mi WNW 11.5 mph - N/A Rain Light Rain
6:30 PM 37.4 °F 30.8 °F 33.8 °F 87% 29.95 in 6.2 mi WNW 9.2 mph - N/A Rain Light Rain
7:00 PM 37 °F - 35 °F 91% 29.97 in 2 mi NW 4.5 mph - - Rain Light Rain
7:00 PM 37.4 °F 30.8 °F 33.8 °F 87% 29.95 in 6.2 mi WNW 9.2 mph - N/A Rain Light Rain
7:30 PM 37.4 °F 30.8 °F 33.8 °F 87% 29.95 in 6.2 mi WNW 9.2 mph - N/A   Mostly Cloudy
8:00 PM 38 °F - 35 °F 83% 29.97 in 6 mi NW 4.5 mph - - Rain Light Rain
8:00 PM 37.4 °F 29.8 °F 33.8 °F 87% 29.95 in 6.2 mi WNW 11.5 mph - N/A   Mostly Cloudy
8:30 PM 37.4 °F 28.9 °F 33.8 °F 87% 29.95 in 6.2 mi WNW 13.8 mph - N/A Rain Light Rain
9:00 PM 38 °F - 34 °F 81% 29.97 in 6 mi WNW 6.7 mph - - Rain Light Rain
9:00 PM 37.4 °F 29.8 °F 33.8 °F 87% 29.95 in 6.2 mi WNW 11.5 mph - N/A Rain Light Rain
10:00 PM 38 °F - 34 °F 81% 29.98 in 6 mi WNW 6.7 mph - - Rain Light Rain
10:00 PM 37.4 °F 30.8 °F 33.8 °F 87% 29.95 in 6.2 mi WNW 9.2 mph - N/A   Overcast
11:00 PM 37 °F - 34 °F 86% 29.97 in 6 mi West 4.5 mph - -   Partly Cloudy
11:00 PM 37.4 °F 32.1 °F 33.8 °F 87% 29.95 in 6.2 mi WNW 6.9 mph - N/A   Mostly Cloudy